WB2COY Weather Reports


time (UTC)temp
F
wind
direction
speed
knots
gust
knots
rain 1hr
in
rain 24hr
in
rain mn
in
humidity
%
barometer
mb
20260507170138 60 23 0.9 5.2 0.00 0.18 0.02 32 1009.7
20260507163015 58 68 0.9 4.3 0.00 0.21 0.02 31 1010.0
20260507160015 57 0 0.9 3.5 0.00 0.26 0.02 35 1010.6
20260507153015 56 338 1.7 4.3 0.00 0.30 0.02 33 1010.9
20260507150015 55 68 1.7 6.1 0.00 0.31 0.02 37 1011.1
20260507143015 54 23 1.7 5.2 0.00 0.31 0.02 39 1011.1
20260507140015 53 23 2.6 7.0 0.00 0.31 0.02 40 1011.4
20260507133015 52 23 1.7 6.1 0.00 0.31 0.02 43 1011.5
20260507130016 52 68 1.7 4.3 0.00 0.31 0.02 54 1011.3
20260507123016 52 23 1.7 5.2 0.00 0.31 0.02 57 1011.2
20260507120015 54 0 0.9 3.5 0.00 0.31 0.02 63 1011.2
20260507113015 51 0.0 2.6 0.00 0.31 0.02 71 1011.0
20260507110019 48 0.0 0.0 0.01 0.31 0.02 76 1010.7
20260507103015 47 0.0 0.0 0.01 0.31 0.02 76 1010.1
20260507100016 47 0.0 0.0 0.00 0.30 0.01 76 1009.6
20260507093038 47 0.0 0.0 0.00 0.30 0.01 76 1009.4
20260507090016 48 0.0 0.0 0.00 0.30 0.01 76 1009.3
20260507083017 49 0.0 0.0 0.00 0.30 0.01 76 1009.7
20260507080017 49 0.0 0.0 0.00 0.30 0.01 76 1009.8
20260507073016 50 0.0 0.0 0.00 0.30 0.01 76 1009.9
20260507070017 50 0.0 0.0 0.00 0.30 0.01 74 1009.5
20260507063017 50 0.0 0.0 0.01 0.30 0.01 73 1009.2
20260507060017 50 0.0 1.7 0.01 0.30 0.01 72 1008.9
20260507053016 51 0.0 0.9 0.00 0.29 0.00 71 1009.0
20260507050016 51 0.0 2.6 0.00 0.29 0.00 71 1009.0
20260507043018 51 0.0 1.7 0.00 0.29 0.00 71 1009.2
20260507040017 52 0 0.9 2.6 0.00 0.29 0.29 71 1009.5
20260507033018 52 0.0 0.9 0.00 0.29 0.29 71 1009.1
20260507030018 52 0.0 0.9 0.00 0.29 0.29 71 1009.2
20260507023017 53 0.0 0.9 0.00 0.29 0.29 71 1009.6
20260507020017 53 45 0.9 2.6 0.00 0.29 0.29 71 1009.4
20260507013056 55 23 1.7 6.1 0.00 0.29 0.29 71 1008.8
20260507010016 59 23 0.9 4.3 0.00 0.29 0.29 72 1007.9
20260507003016 61 0.0 0.9 0.00 0.29 0.29 79 1007.0
20260507000016 61 0.0 0.9 0.00 0.29 0.29 79 1006.5
20260506233016 62 0.0 1.7 0.00 0.29 0.29 79 1006.3
20260506230017 62 0.0 4.3 0.00 0.29 0.29 79 1006.1
20260506223016 62 0.0 1.7 0.00 0.29 0.29 80 1005.6
20260506220016 62 0.0 2.6 0.00 0.29 0.29 80 1005.4
20260506213016 62 0.0 1.7 0.00 0.29 0.29 80 1005.4
20260506210016 62 0.0 1.7 0.04 0.29 0.29 80 1005.3
20260506203016 62 0.0 3.5 0.05 0.29 0.29 79 1005.3
20260506200016 62 0.0 3.5 0.02 0.25 0.25 77 1005.7
20260506193017 62 225 0.9 5.2 0.04 0.24 0.24 76 1005.8
20260506190057 62 225 0.9 4.3 0.05 0.23 0.23 76 1006.1
20260506183016 62 225 0.9 3.5 0.05 0.20 0.20 73 1006.4
20260506180016 63 0.0 6.1 0.05 0.18 0.18 73 1006.4
20260506173015 63 0.0 1.7 0.05 0.15 0.15 72 1006.5